Weather History for Burnet, TX

Change the Weather History Date:

Monday, November 12, 2012

  Actual Average Record
Temperature  
Mean Temperature 48 °F -  
Max Temperature 59 °F 65 °F 81 °F (1999)
Min Temperature 37 °F 47 °F 37 °F (2000)
Degree Days  
Heating Degree Days 17    
Moisture  
Dew Point 25 °F    
Average Humidity 43    
Maximum Humidity 68    
Minimum Humidity 22    
Precipitation  
Precipitation 0.00 in - - ()
Sea Level Pressure  
Sea Level Pressure 30.42 in    
Wind  
Wind Speed 10 mph (NNE)    
Max Wind Speed 17 mph    
Max Gust Speed 24 mph    
Visibility 10 miles    
Events      
Averages and records for this station are not official NWS values.
T = Trace of Precipitation, MM = Missing Value Source: NWS Daily Summary

Daily Weather History Graph

Daily Weather History Graph

Search for Another Location

Airport:

Trip Planner

Search our weather history database for the weather conditions in past years. The results will help you decide how hot, cold, wet, or windy it might be!

Date:

Astronomy

Nov. 12, 2012 Rise Set
Actual Time 6:57 AM CST 5:36 PM CST
Civil Twilight 6:31 AM CST 6:02 PM CST
Nautical Twilight 6:02 AM CST 6:31 PM CST
Astronomical Twilight 5:34 AM CST 6:59 PM CST
Moon 5:27 AM CST (11/12) 4:41 PM CST (11/12)
Length of Visible Light 11h 30m
Length of Day
10h 39m
Waning Crescent, 2% of the Moon is Illuminated
Nov 12
Waning Crescent
Nov 13
New
Nov 20
First Quarter
Nov 28
Full
Dec 6
Last Quarter

Hourly Weather History & Observations

Time (CST) Temp. Windchill Dew Point Humidity Pressure Visibility Wind Dir Wind Speed Gust Speed Precip Events Conditions
12:53 AM 54.0 °F - 34.0 °F 47% 30.23 in 10.0 mi North 12.7 mph - N/A   Clear
1:53 AM 50.0 °F - 39.0 °F 66% 30.26 in 10.0 mi NNE 10.4 mph - N/A   Clear
2:53 AM 46.9 °F - 37.0 °F 68% 30.28 in 10.0 mi North 10.4 mph - N/A   Clear
3:53 AM 44.1 °F 39.5 °F 34.0 °F 68% 30.31 in 10.0 mi North 8.1 mph - N/A   Clear
4:53 AM 42.1 °F 36.6 °F 32.0 °F 67% 30.34 in 10.0 mi North 9.2 mph - N/A   Clear
5:53 AM 39.9 °F 33.4 °F 28.9 °F 65% 30.37 in 10.0 mi North 10.4 mph - N/A   Clear
6:53 AM 37.9 °F 32.7 °F 28.0 °F 68% 30.40 in 10.0 mi NNE 6.9 mph - N/A   Clear
7:53 AM 39.9 °F 33.4 °F 27.0 °F 60% 30.45 in 10.0 mi NNE 10.4 mph - N/A   Clear
8:53 AM 42.1 °F 33.9 °F 24.1 °F 49% 30.47 in 10.0 mi NNE 17.3 mph 24.2 mph N/A   Clear
9:53 AM 46.0 °F 40.2 °F 23.0 °F 40% 30.48 in 10.0 mi NNE 12.7 mph - N/A   Clear
10:53 AM 48.9 °F - 24.1 °F 38% 30.48 in 10.0 mi NNE 12.7 mph - N/A   Clear
11:53 AM 53.1 °F - 24.1 °F 32% 30.45 in 10.0 mi North 9.2 mph - N/A   Clear
12:53 PM 55.0 °F - 23.0 °F 29% 30.44 in 10.0 mi Variable 6.9 mph - N/A   Clear
1:53 PM 57.9 °F - 21.0 °F 24% 30.42 in 10.0 mi ENE 12.7 mph 18.4 mph N/A   Clear
2:53 PM 59.0 °F - 19.9 °F 22% 30.42 in 10.0 mi NNE 10.4 mph 18.4 mph N/A   Clear
3:53 PM 59.0 °F - 19.9 °F 22% 30.42 in 10.0 mi NNE 12.7 mph - N/A   Clear
4:53 PM 55.9 °F - 19.0 °F 24% 30.43 in 10.0 mi ENE 10.4 mph - N/A   Clear
5:53 PM 52.0 °F - 19.9 °F 28% 30.45 in 10.0 mi NE 4.6 mph - N/A   Clear
6:53 PM 48.0 °F - 19.9 °F 33% 30.46 in 10.0 mi ENE 3.5 mph - N/A   Clear
7:53 PM 46.9 °F - 19.0 °F 33% 30.47 in 10.0 mi NE 5.8 mph - N/A   Clear
8:53 PM 45.0 °F 43.5 °F 19.9 °F 37% 30.48 in 10.0 mi North 3.5 mph - N/A   Clear
9:53 PM 43.0 °F 40.3 °F 19.0 °F 38% 30.50 in 10.0 mi NNE 4.6 mph - N/A   Clear
10:53 PM 43.0 °F 39.5 °F 19.0 °F 38% 30.50 in 10.0 mi NNE 5.8 mph - N/A   Clear
11:53 PM 44.1 °F 39.5 °F 19.0 °F 37% 30.51 in 10.0 mi NE 8.1 mph - N/A   Clear